Volver al catálogo

STARLINK-32207

ActivoComunicacionesVLEO
NORAD 60259·PAYLOAD·🇺🇸 United States

Lanzado Jul 27, 2024 desde Cape Canaveral Space Force Station

Loading…

Próximos Pases (próximas 24 horas)

TLE

ActualizadoSource: CelesTrak SupGP

Época: Sep 14, 2026, 20:44 UTC

1 60259C 24131E   26257.86437500  .00056535  00000+0  16706-2 0  2570
2 60259  53.1569 252.2654 0001192  96.6959 241.7943 15.34358533    17

Sigue STARLINK-32207 en tiempo real con AllMySat

Download on the App Store